AAL1089 KBWI-KCAE

Flight info

Callsign AAL1089
Flight time 1h 6m
Altitude 38000
Route TERPZ8 RRSIN GSO CAE
Aircraft A20N/M-SDE2E3FGHIRWXY/LB1

Departure

Time 2026-04-12 10:52
Airport Baltimore/Washington International Thurgood Marshall Airport (KBWI)

Arrival

Time 2026-04-12 11:58
Airport Columbia Metropolitan Airport (KCAE)
Time Latitude Longitude Altitude Speed Heading
2026-04-12 10:32 39.17975 -76.67296 143 ft 0 kts 54°
2026-04-12 10:38 39.17974 -76.67297 143 ft 0 kts 54°
2026-04-12 10:44 39.17968 -76.67308 142 ft 2 kts 54°
2026-04-12 10:44 39.17962 -76.67319 142 ft 1 kts 54°
2026-04-12 10:44 39.17952 -76.67333 141 ft 2 kts 31°
2026-04-12 10:44 39.17939 -76.67340 140 ft 2 kts 13°
2026-04-12 10:45 39.17924 -76.67342 140 ft 2 kts 352°
2026-04-12 10:45 39.17910 -76.67336 140 ft 2 kts 332°
2026-04-12 10:45 39.17903 -76.67332 140 ft 1 kts 320°
2026-04-12 10:45 39.17900 -76.67328 140 ft 0 kts 323°
2026-04-12 10:47 39.17900 -76.67329 140 ft 0 kts 323°
2026-04-12 10:48 39.17894 -76.67357 140 ft 6 kts 223°
2026-04-12 10:48 39.17895 -76.67420 138 ft 9 kts 302°
2026-04-12 10:48 39.17951 -76.67484 136 ft 12 kts 324°
2026-04-12 10:48 39.18027 -76.67552 136 ft 13 kts 323°
2026-04-12 10:49 39.18106 -76.67627 136 ft 14 kts 324°
2026-04-12 10:49 39.18189 -76.67703 136 ft 14 kts 325°
2026-04-12 10:49 39.18274 -76.67778 136 ft 15 kts 323°
2026-04-12 10:49 39.18360 -76.67860 136 ft 15 kts 324°
2026-04-12 10:50 39.18452 -76.67944 134 ft 17 kts 324°
2026-04-12 10:50 39.18547 -76.68034 131 ft 12 kts 320°
2026-04-12 10:50 39.18561 -76.68134 126 ft 14 kts 238°
2026-04-12 10:50 39.18476 -76.68141 127 ft 14 kts 144°
2026-04-12 10:51 39.18371 -76.68044 129 ft 39 kts 144°
2026-04-12 10:51 39.17947 -76.67653 133 ft 110 kts 143°
2026-04-12 10:51 39.17160 -76.66923 161 ft 164 kts 144°
2026-04-12 10:51 39.16185 -76.66047 653 ft 174 kts 144°
2026-04-12 10:52 39.15212 -76.65197 1534 ft 168 kts 149°
2026-04-12 10:52 39.14120 -76.64869 2315 ft 169 kts 184°
2026-04-12 10:52 39.13026 -76.65482 2826 ft 186 kts 220°
2026-04-12 10:52 39.12367 -76.66963 3359 ft 205 kts 258°
2026-04-12 10:53 39.12627 -76.68835 3861 ft 230 kts 300°
2026-04-12 10:53 39.13763 -76.70346 4577 ft 243 kts 319°
2026-04-12 10:53 39.15111 -76.71616 5466 ft 242 kts 322°
2026-04-12 10:53 39.16526 -76.72778 6416 ft 240 kts 326°
2026-04-12 10:54 39.17802 -76.74050 7345 ft 234 kts 311°
2026-04-12 10:54 39.18824 -76.75638 8156 ft 234 kts 298°
2026-04-12 10:54 39.19363 -76.77602 8994 ft 235 kts 279°
2026-04-12 10:54 39.19535 -76.79676 9705 ft 239 kts 279°
2026-04-12 10:55 39.19776 -76.81824 10366 ft 246 kts 282°
2026-04-12 10:55 39.20093 -76.84035 10808 ft 263 kts 283°
2026-04-12 10:55 39.20452 -76.86407 11216 ft 281 kts 283°
2026-04-12 10:55 39.20836 -76.88982 11607 ft 299 kts 283°
2026-04-12 10:56 39.21228 -76.91657 11943 ft 317 kts 282°
2026-04-12 10:56 39.21633 -76.94554 12355 ft 334 kts 281°
2026-04-12 10:56 39.21915 -76.97545 13019 ft 341 kts 277°
2026-04-12 10:56 39.22042 -77.00553 13742 ft 344 kts 274°
2026-04-12 10:57 39.22094 -77.03636 14479 ft 348 kts 273°
2026-04-12 10:57 39.22138 -77.06766 15208 ft 351 kts 273°
2026-04-12 10:57 39.22136 -77.09913 15904 ft 355 kts 267°
2026-04-12 10:57 39.21483 -77.12969 16564 ft 365 kts 247°
2026-04-12 10:58 39.19990 -77.15623 17253 ft 375 kts 227°
2026-04-12 10:58 39.17848 -77.17635 17919 ft 382 kts 217°
2026-04-12 10:58 39.15597 -77.19460 18565 ft 385 kts 217°
2026-04-12 10:58 39.13320 -77.21310 19158 ft 389 kts 217°
2026-04-12 10:59 39.11035 -77.23186 19722 ft 392 kts 217°
2026-04-12 10:59 39.08737 -77.25023 20305 ft 397 kts 215°
2026-04-12 10:59 39.06323 -77.26745 20885 ft 400 kts 213°
2026-04-12 10:59 39.03838 -77.28484 21457 ft 403 kts 213°
2026-04-12 11:00 39.01397 -77.30192 21975 ft 407 kts 213°
2026-04-12 11:00 38.98882 -77.31950 22511 ft 410 kts 214°
2026-04-12 11:00 38.96367 -77.33705 22998 ft 414 kts 214°
2026-04-12 11:00 38.93870 -77.35451 23500 ft 416 kts 214°
2026-04-12 11:01 38.91316 -77.37233 24004 ft 419 kts 214°
2026-04-12 11:01 38.88757 -77.39020 24447 ft 423 kts 214°
2026-04-12 11:01 38.86162 -77.40830 24852 ft 427 kts 214°
2026-04-12 11:01 38.83521 -77.42670 25285 ft 431 kts 214°
2026-04-12 11:02 38.80887 -77.44505 25693 ft 434 kts 214°
2026-04-12 11:02 38.78255 -77.46334 26104 ft 437 kts 214°
2026-04-12 11:02 38.75541 -77.48162 26485 ft 443 kts 212°
2026-04-12 11:02 38.72693 -77.49773 26873 ft 449 kts 207°
2026-04-12 11:03 38.69729 -77.51107 27235 ft 456 kts 202°
2026-04-12 11:03 38.66663 -77.52222 27600 ft 460 kts 201°
2026-04-12 11:03 38.63569 -77.53295 27992 ft 462 kts 201°
2026-04-12 11:03 38.60509 -77.54348 28470 ft 461 kts 201°
2026-04-12 11:04 38.57411 -77.55421 28950 ft 461 kts 201°
2026-04-12 11:04 38.54286 -77.56509 29408 ft 461 kts 201°
2026-04-12 11:04 38.51205 -77.57584 29856 ft 461 kts 201°
2026-04-12 11:04 38.48123 -77.58659 30302 ft 461 kts 201°
2026-04-12 11:05 38.45045 -77.59734 30743 ft 461 kts 201°
2026-04-12 11:05 38.41973 -77.60806 31223 ft 460 kts 201°
2026-04-12 11:05 38.38855 -77.61892 31680 ft 460 kts 202°
2026-04-12 11:05 38.35831 -77.63076 32040 ft 457 kts 206°
2026-04-12 11:06 38.32867 -77.64551 32436 ft 454 kts 211°
2026-04-12 11:06 38.30051 -77.66284 32837 ft 449 kts 215°
2026-04-12 11:06 38.27359 -77.68279 33257 ft 444 kts 220°
2026-04-12 11:06 38.24813 -77.70517 33670 ft 439 kts 224°
2026-04-12 11:07 38.22447 -77.72935 34037 ft 435 kts 228°
2026-04-12 11:07 38.20141 -77.75427 34390 ft 435 kts 229°
2026-04-12 11:07 38.17837 -77.77932 34724 ft 435 kts 229°
2026-04-12 11:07 38.15544 -77.80411 35096 ft 435 kts 228°
2026-04-12 11:08 38.13247 -77.82882 35440 ft 434 kts 228°
2026-04-12 11:08 38.10964 -77.85324 35772 ft 434 kts 229°
2026-04-12 11:08 38.08648 -77.87799 36142 ft 433 kts 229°
2026-04-12 11:08 38.06366 -77.90230 36455 ft 432 kts 229°
2026-04-12 11:09 38.04071 -77.92680 36784 ft 431 kts 229°
2026-04-12 11:09 38.01782 -77.95113 37056 ft 431 kts 229°
2026-04-12 11:09 37.99475 -77.97560 37258 ft 432 kts 229°
2026-04-12 11:09 37.97183 -77.99991 37407 ft 435 kts 229°
2026-04-12 11:10 37.94852 -78.02466 37576 ft 436 kts 229°
2026-04-12 11:10 37.92537 -78.04917 37784 ft 437 kts 229°
2026-04-12 11:10 37.90196 -78.07398 37982 ft 438 kts 229°
2026-04-12 11:10 37.87833 -78.09901 38106 ft 439 kts 229°
2026-04-12 11:11 37.83150 -78.14857 38305 ft 443 kts 229°
2026-04-12 11:11 37.80798 -78.17337 38421 ft 443 kts 230°
2026-04-12 11:11 37.78419 -78.19848 38423 ft 445 kts 229°
2026-04-12 11:12 37.73677 -78.24842 38423 ft 445 kts 229°
2026-04-12 11:12 37.68911 -78.29854 38425 ft 446 kts 230°
2026-04-12 11:13 37.64151 -78.34854 38426 ft 447 kts 230°
2026-04-12 11:13 37.59407 -78.39827 38423 ft 445 kts 230°
2026-04-12 11:14 37.54637 -78.44821 38426 ft 448 kts 230°
2026-04-12 11:14 37.49865 -78.49809 38426 ft 447 kts 230°
2026-04-12 11:15 37.45082 -78.54789 38427 ft 447 kts 229°
2026-04-12 11:15 37.40271 -78.59745 38428 ft 448 kts 229°
2026-04-12 11:16 37.35453 -78.64705 38430 ft 448 kts 229°
2026-04-12 11:16 37.30595 -78.69705 38429 ft 449 kts 229°
2026-04-12 11:17 37.25770 -78.74664 38428 ft 450 kts 229°
2026-04-12 11:17 37.20929 -78.79627 38428 ft 450 kts 229°
2026-04-12 11:18 37.16095 -78.84577 38420 ft 452 kts 229°
2026-04-12 11:18 37.11224 -78.89561 38420 ft 453 kts 229°
2026-04-12 11:19 37.06360 -78.94521 38411 ft 453 kts 229°
2026-04-12 11:19 37.01512 -78.99467 38412 ft 452 kts 229°
2026-04-12 11:20 36.96634 -79.04424 38406 ft 453 kts 229°
2026-04-12 11:20 36.91757 -79.09406 38413 ft 453 kts 229°
2026-04-12 11:21 36.86879 -79.14410 38409 ft 453 kts 229°
2026-04-12 11:21 36.82023 -79.19381 38416 ft 452 kts 229°
2026-04-12 11:22 36.77166 -79.24352 38420 ft 453 kts 229°
2026-04-12 11:22 36.72275 -79.29344 38406 ft 453 kts 229°
2026-04-12 11:23 36.67444 -79.34267 38413 ft 452 kts 229°
2026-04-12 11:23 36.62553 -79.39244 38412 ft 453 kts 229°
2026-04-12 11:24 36.57691 -79.44179 38417 ft 453 kts 229°
2026-04-12 11:24 36.52807 -79.49135 38397 ft 453 kts 228°
2026-04-12 11:25 36.47935 -79.54067 38406 ft 453 kts 228°
2026-04-12 11:25 36.43048 -79.59003 38398 ft 451 kts 228°
2026-04-12 11:26 36.38169 -79.63927 38396 ft 452 kts 228°
2026-04-12 11:26 36.33283 -79.68853 38395 ft 453 kts 227°
2026-04-12 11:27 36.28379 -79.73784 38387 ft 454 kts 227°
2026-04-12 11:27 36.23488 -79.78695 38387 ft 454 kts 227°
2026-04-12 11:28 36.18588 -79.83604 38388 ft 453 kts 227°
2026-04-12 11:28 36.13682 -79.88514 38391 ft 455 kts 227°
2026-04-12 11:29 36.08236 -79.92723 38388 ft 473 kts 209°
2026-04-12 11:29 36.01754 -79.94646 38382 ft 488 kts 188°
2026-04-12 11:30 35.98370 -79.94591 38389 ft 493 kts 177°
2026-04-12 11:30 35.94994 -79.93830 38387 ft 497 kts 165°
2026-04-12 11:30 35.88410 -79.91071 38381 ft 498 kts 160°
2026-04-12 11:31 35.81910 -79.88227 38388 ft 497 kts 162°
2026-04-12 11:31 35.75383 -79.85497 38386 ft 497 kts 162°
2026-04-12 11:32 35.68824 -79.82793 38381 ft 497 kts 162°
2026-04-12 11:32 35.62269 -79.80090 38387 ft 497 kts 161°
2026-04-12 11:33 35.59012 -79.78734 37966 ft 500 kts 161°
2026-04-12 11:33 35.55687 -79.77351 37240 ft 501 kts 161°
2026-04-12 11:33 35.52404 -79.75986 36561 ft 501 kts 162°
2026-04-12 11:33 35.49139 -79.74629 35851 ft 501 kts 161°
2026-04-12 11:34 35.45834 -79.73254 35125 ft 500 kts 161°
2026-04-12 11:34 35.42551 -79.71890 34516 ft 497 kts 161°
2026-04-12 11:34 35.39291 -79.70538 33898 ft 494 kts 161°
2026-04-12 11:34 35.36026 -79.69186 33275 ft 494 kts 162°
2026-04-12 11:35 35.32811 -79.67851 32679 ft 492 kts 162°
2026-04-12 11:35 35.29558 -79.66506 32151 ft 488 kts 162°
2026-04-12 11:35 35.26367 -79.65219 31559 ft 486 kts 166°
2026-04-12 11:35 35.23068 -79.64632 30993 ft 476 kts 184°
2026-04-12 11:36 35.19858 -79.65157 30489 ft 464 kts 200°
2026-04-12 11:36 35.16909 -79.66689 29950 ft 452 kts 217°
2026-04-12 11:36 35.14434 -79.68912 29384 ft 445 kts 224°
2026-04-12 11:36 35.12035 -79.71327 28643 ft 446 kts 225°
2026-04-12 11:37 35.09660 -79.73735 28042 ft 445 kts 225°
2026-04-12 11:37 35.07286 -79.76117 27604 ft 446 kts 224°
2026-04-12 11:37 35.04870 -79.78519 27108 ft 446 kts 224°
2026-04-12 11:37 35.02479 -79.80877 26600 ft 442 kts 224°
2026-04-12 11:38 35.00079 -79.83233 26123 ft 438 kts 224°
2026-04-12 11:38 34.97725 -79.85535 25581 ft 436 kts 223°
2026-04-12 11:38 34.95379 -79.87826 25039 ft 433 kts 223°
2026-04-12 11:38 34.93031 -79.90115 24520 ft 429 kts 223°
2026-04-12 11:39 34.90704 -79.92381 24075 ft 425 kts 223°
2026-04-12 11:39 34.88405 -79.94618 23577 ft 422 kts 223°
2026-04-12 11:39 34.86115 -79.96848 23061 ft 419 kts 223°
2026-04-12 11:39 34.83855 -79.99047 22555 ft 417 kts 223°
2026-04-12 11:40 34.81591 -80.01248 22072 ft 414 kts 223°
2026-04-12 11:40 34.79348 -80.03426 21594 ft 411 kts 223°
2026-04-12 11:40 34.77143 -80.05566 21128 ft 407 kts 222°
2026-04-12 11:40 34.74936 -80.07705 20668 ft 403 kts 222°
2026-04-12 11:41 34.72784 -80.09790 20177 ft 400 kts 222°
2026-04-12 11:41 34.70560 -80.11847 19666 ft 399 kts 219°
2026-04-12 11:41 34.68332 -80.13779 19210 ft 395 kts 218°
2026-04-12 11:41 34.66096 -80.15703 18803 ft 392 kts 218°
2026-04-12 11:42 34.63871 -80.17627 18413 ft 390 kts 218°
2026-04-12 11:42 34.61686 -80.19523 18002 ft 388 kts 218°
2026-04-12 11:42 34.59497 -80.21431 17542 ft 385 kts 218°
2026-04-12 11:43 34.55194 -80.25182 16602 ft 379 kts 218°
2026-04-12 11:43 34.53059 -80.27045 16111 ft 377 kts 218°
2026-04-12 11:43 34.50930 -80.28901 15630 ft 374 kts 217°
2026-04-12 11:43 34.48839 -80.30720 15159 ft 371 kts 217°
2026-04-12 11:44 34.46746 -80.32549 14685 ft 369 kts 218°
2026-04-12 11:44 34.44688 -80.34348 14208 ft 366 kts 217°
2026-04-12 11:44 34.42622 -80.36153 13729 ft 363 kts 217°
2026-04-12 11:44 34.40583 -80.37933 13255 ft 361 kts 217°
2026-04-12 11:45 34.38570 -80.39687 12785 ft 359 kts 217°
2026-04-12 11:45 34.36537 -80.41457 12276 ft 358 kts 216°
2026-04-12 11:45 34.34542 -80.43195 11788 ft 357 kts 216°
2026-04-12 11:45 34.32512 -80.44959 11266 ft 357 kts 216°
2026-04-12 11:46 34.30493 -80.46712 10768 ft 354 kts 215°
2026-04-12 11:46 34.28541 -80.48406 10534 ft 344 kts 215°
2026-04-12 11:46 34.26618 -80.50076 10367 ft 331 kts 215°
2026-04-12 11:46 34.24797 -80.51657 10200 ft 319 kts 214°
2026-04-12 11:47 34.23023 -80.53194 10071 ft 306 kts 214°
2026-04-12 11:47 34.21329 -80.54659 9825 ft 300 kts 214°
2026-04-12 11:47 34.19629 -80.56132 9424 ft 298 kts 214°
2026-04-12 11:47 34.17943 -80.57591 9060 ft 295 kts 214°
2026-04-12 11:48 34.16297 -80.59012 8716 ft 291 kts 214°
2026-04-12 11:48 34.14647 -80.60437 8359 ft 287 kts 214°
2026-04-12 11:48 34.13042 -80.61822 8042 ft 283 kts 214°
2026-04-12 11:48 34.11448 -80.63199 7740 ft 280 kts 214°
2026-04-12 11:49 34.09887 -80.64545 7392 ft 277 kts 214°
2026-04-12 11:49 34.08320 -80.65900 7040 ft 275 kts 213°
2026-04-12 11:49 34.06773 -80.67233 6721 ft 273 kts 214°
2026-04-12 11:49 34.05236 -80.68558 6431 ft 271 kts 214°
2026-04-12 11:50 34.03701 -80.69878 6125 ft 271 kts 214°
2026-04-12 11:50 34.02177 -80.71189 5780 ft 270 kts 214°
2026-04-12 11:50 34.00644 -80.72508 5450 ft 268 kts 214°
2026-04-12 11:50 33.99145 -80.73798 5182 ft 263 kts 214°
2026-04-12 11:51 33.97683 -80.75056 4960 ft 256 kts 214°
2026-04-12 11:51 33.96238 -80.76297 4682 ft 252 kts 214°
2026-04-12 11:51 33.94814 -80.77521 4410 ft 248 kts 214°
2026-04-12 11:51 33.93427 -80.78714 4152 ft 244 kts 216°
2026-04-12 11:52 33.92221 -80.80127 3882 ft 242 kts 233°
2026-04-12 11:52 33.91455 -80.81882 3629 ft 239 kts 248°
2026-04-12 11:52 33.90890 -80.83752 3380 ft 235 kts 250°
2026-04-12 11:52 33.90359 -80.85591 3129 ft 231 kts 250°
2026-04-12 11:53 33.89831 -80.87390 2851 ft 225 kts 250°
2026-04-12 11:53 33.89406 -80.89180 2548 ft 217 kts 264°
2026-04-12 11:53 33.89456 -80.90928 2477 ft 203 kts 278°
2026-04-12 11:53 33.89761 -80.92582 2584 ft 196 kts 284°
2026-04-12 11:54 33.90116 -80.94092 2532 ft 179 kts 284°
2026-04-12 11:54 33.90435 -80.95448 2514 ft 160 kts 284°
2026-04-12 11:54 33.90715 -80.96699 2505 ft 150 kts 283°
2026-04-12 11:54 33.90980 -80.97922 2407 ft 151 kts 283°
2026-04-12 11:55 33.91242 -80.99138 2212 ft 150 kts 282°
2026-04-12 11:55 33.91500 -81.00339 2012 ft 148 kts 283°
2026-04-12 11:55 33.91755 -81.01525 1833 ft 147 kts 283°
2026-04-12 11:55 33.92007 -81.02693 1632 ft 139 kts 283°
2026-04-12 11:56 33.92245 -81.03792 1439 ft 136 kts 283°
2026-04-12 11:56 33.92484 -81.04894 1257 ft 135 kts 283°
2026-04-12 11:56 33.92722 -81.05991 1078 ft 135 kts 283°
2026-04-12 11:56 33.92957 -81.07076 902 ft 134 kts 284°
2026-04-12 11:57 33.93193 -81.08163 724 ft 134 kts 284°
2026-04-12 11:57 33.93430 -81.09252 543 ft 134 kts 284°
2026-04-12 11:57 33.93664 -81.10325 367 ft 133 kts 285°
2026-04-12 11:57 33.93896 -81.11404 226 ft 131 kts 284°
2026-04-12 11:58 33.94099 -81.12328 227 ft 91 kts 285°
2026-04-12 11:58 33.94217 -81.12865 233 ft 41 kts 285°
2026-04-12 11:58 33.94333 -81.13114 236 ft 32 kts 313°
2026-04-12 11:58 33.94438 -81.13219 238 ft 10 kts
2026-04-12 11:59 33.94479 -81.13165 241 ft 9 kts 90°
2026-04-12 11:59 33.94464 -81.13085 241 ft 10 kts 104°